Weather History for Ypsilanti, MI

Change the Weather History Date:

Tuesday, November 5, 2013

  Actual Average Record
Temperature  
Mean Temperature 48 °F -  
Max Temperature 57 °F 50 °F 74 °F (1978)
Min Temperature 39 °F 35 °F 18 °F (1991)
Degree Days  
Heating Degree Days 17    
Moisture  
Dew Point 42 °F    
Average Humidity 72    
Maximum Humidity 83    
Minimum Humidity 62    
Precipitation  
Precipitation 0.00 in - - ()
Sea Level Pressure  
Sea Level Pressure 30.31 in    
Wind  
Wind Speed 6 mph (South)    
Max Wind Speed 12 mph    
Max Gust Speed -    
Visibility 10 miles    
Events      
Averages and records for this station are not official NWS values.
T = Trace of Precipitation, MM = Missing Value Source: NWS Daily Summary

Daily Weather History Graph

Daily Weather History Graph

Search for Another Location

Airport:

Trip Planner

Search our weather history database for the weather conditions in past years. The results will help you decide how hot, cold, wet, or windy it might be!

Date:

Astronomy

Nov. 05, 2013 Rise Set
Actual Time 7:12 AM EST 5:22 PM EST
Civil Twilight 6:42 AM EST 5:51 PM EST
Nautical Twilight 6:09 AM EST 6:25 PM EST
Astronomical Twilight 5:36 AM EST 6:57 PM EST
Moon 9:27 AM EST (11/5) 7:21 PM EST (11/5)
Length of Visible Light 11h 08m
Length of Day
10h 09m
Waxing Crescent, 6% of the Moon is Illuminated
Nov 5
Waxing Crescent
Nov 10
First Quarter
Nov 17
Full
Nov 25
Last Quarter
Dec 2
New

Hourly Weather History & Observations

Time (EST) Temp. Windchill Dew Point Humidity Pressure Visibility Wind Dir Wind Speed Gust Speed Precip Events Conditions
12:53 AM 43.0 °F 39.5 °F 34.0 °F 71% 30.32 in 10.0 mi South 5.8 mph - N/A   Partly Cloudy
1:53 AM 41.0 °F 37.1 °F 33.1 °F 73% 30.32 in 10.0 mi South 5.8 mph - N/A   Partly Cloudy
2:53 AM 41.0 °F 38.0 °F 35.1 °F 79% 30.33 in 10.0 mi South 4.6 mph - N/A   Scattered Clouds
3:53 AM 39.0 °F 36.8 °F 33.1 °F 79% 30.33 in 10.0 mi SSW 3.5 mph - N/A   Scattered Clouds
4:53 AM 42.1 °F 39.2 °F 37.0 °F 82% 30.34 in 10.0 mi SSW 4.6 mph - N/A   Overcast
5:53 AM 45.0 °F - 37.9 °F 76% 30.34 in 10.0 mi Calm Calm - N/A   Overcast
6:53 AM 46.0 °F 44.8 °F 39.0 °F 76% 30.35 in 10.0 mi South 3.5 mph - N/A   Overcast
7:53 AM 46.9 °F - 39.9 °F 77% 30.36 in 10.0 mi SSW 3.5 mph - N/A   Overcast
8:53 AM 48.0 °F - 41.0 °F 77% 30.37 in 10.0 mi South 4.6 mph - N/A   Overcast
9:53 AM 51.1 °F - 41.0 °F 68% 30.37 in 10.0 mi South 4.6 mph - N/A   Overcast
10:53 AM 53.1 °F - 42.1 °F 66% 30.37 in 10.0 mi SSW 6.9 mph - N/A   Overcast
11:53 AM 55.0 °F - 42.1 °F 62% 30.35 in 10.0 mi SSW 8.1 mph - N/A   Overcast
12:53 PM 55.9 °F - 43.0 °F 62% 30.33 in 10.0 mi SW 8.1 mph - N/A   Overcast
1:53 PM 57.0 °F - 44.1 °F 62% 30.32 in 10.0 mi SW 5.8 mph - N/A   Overcast
2:53 PM 57.0 °F - 45.0 °F 64% 30.32 in 10.0 mi SSW 8.1 mph - N/A   Overcast
3:53 PM 57.0 °F - 46.0 °F 67% 30.31 in 10.0 mi South 8.1 mph - N/A   Overcast
4:53 PM 55.9 °F - 46.9 °F 72% 30.29 in 10.0 mi South 8.1 mph - N/A   Overcast
5:53 PM 53.1 °F - 46.0 °F 77% 30.30 in 10.0 mi South 5.8 mph - N/A   Partly Cloudy
6:53 PM 50.0 °F - 45.0 °F 83% 30.28 in 9.0 mi SE 6.9 mph - N/A   Partly Cloudy
7:53 PM 53.1 °F - 46.9 °F 80% 30.27 in 6.0 mi South 5.8 mph - N/A   Haze
8:53 PM 54.0 °F - 46.0 °F 75% 30.25 in 9.0 mi SSE 8.1 mph - N/A   Clear
9:53 PM 54.0 °F - 45.0 °F 72% 30.24 in 10.0 mi SSE 6.9 mph - N/A   Partly Cloudy
10:53 PM 54.0 °F - 44.1 °F 69% 30.21 in 10.0 mi SSE 9.2 mph - N/A   Mostly Cloudy
11:53 PM 54.0 °F - 43.0 °F 66% 30.18 in 10.0 mi South 11.5 mph - N/A   Partly Cloudy